Find Starlink 11432

NORAD ID: 62882 Int'l Des: 2025-024 Owner: SPXS Country: US Constellation: starlink operational
LEOCIRCULAR

Live Position

Loading 3D Globe...

About Starlink 11432

Description loading...

Upcoming Passes

Passes for default location (London). Set your location on the main map for personalized predictions.

Altitude History

Loading altitude history...

Two-Line Element Set

1 62882U 25024D 26126.48360030 .00160612 00000-0 12296-2 0 9998
2 62882 42.9993 193.3118 0000887 269.8498 90.2268 15.70869652 72554
Epoch: May 6, 2026 • Age: 15 hours

Current Status

Altitude 362.4 km
Velocity 7.69 km/s
Sub-Earth Point -27.32°S, 109.17°W
Launch Date Feb 4, 2025
Age 1.2 years
Type internet

Technical Details

Classification Payload
Mass 960.00 kg
Dry Mass 910.00 kg
Total Mass 960.00 kg
Length 0.30 m
Diameter 4.10 m
Span 29.00 m
Shape Box + pan
Manufacturer SPXS
Bus Type Starlink V2MD
Phase Status In Orbit
Owner/State SPXS/US

Most Searched